Date,TemperatureHighF,TemperatureAvgF,TemperatureLowF,DewpointHighF,DewpointAvgF,DewpointLowF,HumidityHigh,HumidityAvg,HumidityLow,PressureMaxIn,PressureMinIn,WindSpeedMaxMPH,WindSpeedAvgMPH,GustSpeedMaxMPH,PrecipitationSumIn
2013-1-1,70.8,56.6,45.3,59.2,52.2,43.3,95,86,66,30.37,30.11,8,1,0,0.00
2013-1-2,64.3,60.5,53.4,60.9,56.9,51.3,94,88,80,30.28,30.06,14,2,14,0.03
2013-1-3,54.6,51.4,46.5,52.6,49.6,44.9,95,93,91,30.41,30.22,7,0,0,0.29
2013-1-4,61.8,48.6,40.0,46.1,42.2,37.9,95,81,45,30.50,30.39,10,0,0,0.00
2013-1-5,59.6,45.6,32.3,44.1,38.7,30.9,96,79,47,30.55,30.44,14,1,14,0.00
2013-1-6,56.8,50.0,46.4,49.1,46.0,42.8,92,86,65,30.45,30.28,5,0,0,0.05
2013-1-7,58.9,48.6,37.9,45.1,39.2,35.6,93,72,46,30.53,30.34,20,2,20,0.00
2013-1-8,67.2,53.9,45.5,55.4,47.6,38.8,94,80,63,30.53,30.44,13,1,13,0.00
2013-1-9,74.5,62.1,55.5,65.9,58.3,52.7,94,87,75,30.54,30.44,10,1,0,0.00
2013-1-10,72.3,61.8,53.0,63.6,58.6,51.6,95,90,66,30.56,30.47,19,2,19,0.01
2013-1-11,77.2,65.3,56.0,67.4,61.6,54.6,96,88,65,30.47,30.32,10,1,0,0.00
2013-1-12,82.2,67.3,58.0,68.3,62.2,56.6,95,85,56,30.36,30.25,6,0,0,0.01
2013-1-13,77.6,64.7,54.5,65.2,59.8,53.1,96,85,59,30.33,30.23,5,0,0,0.01
2013-1-14,80.2,68.0,60.4,67.6,62.6,58.7,95,84,57,30.35,30.24,11,1,0,0.02
2013-1-15,80.0,68.0,59.3,66.7,62.2,57.3,94,83,54,30.30,30.19,11,1,0,0.00
2013-1-16,81.2,69.3,63.0,65.8,62.9,61.1,95,81,52,30.22,30.09,13,2,13,0.01
2013-1-17,77.3,60.2,43.6,64.4,54.6,36.3,92,82,64,30.25,29.90,26,3,26,0.10
2013-1-18,60.2,47.0,36.2,40.7,33.6,22.3,87,65,24,30.64,30.25,19,2,19,0.00
2013-1-19,66.0,49.0,36.4,49.9,40.3,30.2,94,73,50,30.61,30.38,12,1,12,0.00
2013-1-20,69.8,51.8,40.5,51.3,42.9,36.8,96,76,32,30.39,30.21,16,1,16,0.00
2013-1-21,66.8,51.6,36.5,44.8,38.9,35.1,95,66,36,30.28,30.15,14,1,14,0.00
2013-1-22,59.2,47.6,35.7,35.9,28.0,23.6,86,49,27,30.46,30.24,17,2,18,0.00
2013-1-23,59.4,44.3,31.1,37.9,29.2,22.8,87,58,32,30.56,30.36,11,1,0,0.00
2013-1-24,70.4,54.8,40.9,50.0,39.9,26.9,78,60,28,30.57,30.29,23,4,23,0.00
2013-1-25,60.9,45.8,32.2,46.7,35.3,23.0,82,67,55,30.58,30.30,17,1,17,0.00
2013-1-26,71.8,55.5,42.0,56.1,47.3,39.1,94,76,43,30.45,30.28,14,1,14,0.00
2013-1-27,59.6,48.5,40.5,45.0,41.3,37.0,93,77,53,30.63,30.45,18,2,18,0.00
2013-1-28,72.1,54.9,45.6,58.4,48.0,40.6,94,79,53,30.59,30.44,10,0,13,0.00
2013-1-29,77.0,61.5,47.9,65.9,57.4,46.3,95,87,66,30.44,30.26,12,1,12,0.00
2013-1-30,74.8,68.8,52.3,66.5,63.8,49.1,92,84,71,30.26,29.81,28,6,28,0.20
2013-1-31,57.2,50.1,38.7,51.6,33.3,22.8,93,56,28,30.36,29.92,23,4,23,0.04
2013-2-1,60.6,47.0,34.9,35.6,26.2,12.5,71,47,17,30.52,30.35,19,3,19,0.00
2013-2-2,63.4,44.3,27.2,38.5,28.4,17.6,77,57,23,30.53,30.27,8,1,0,0.00
2013-2-3,64.1,52.3,43.4,35.6,32.5,28.8,73,48,29,30.29,30.11,20,3,20,0.00
2013-2-4,61.1,44.7,31.3,40.5,34.7,29.4,94,72,35,30.31,30.21,7,0,0,0.00
2013-2-5,72.5,52.7,35.7,51.5,44.0,33.9,95,75,42,30.25,30.11,12,1,0,0.00
2013-2-6,80.3,59.9,47.1,57.7,52.0,45.2,94,78,40,30.31,30.19,8,1,0,0.00
2013-2-7,64.5,56.9,49.8,62.3,55.0,48.1,95,93,87,30.30,29.88,17,2,17,1.64
2013-2-8,65.8,55.8,48.4,52.8,49.7,45.8,93,81,61,30.23,29.93,12,2,0,0.00
2013-2-9,68.7,51.6,37.6,49.8,39.4,29.5,94,70,26,30.49,30.23,12,1,12,0.00
2013-2-10,70.0,53.8,34.5,57.9,47.8,33.0,95,82,60,30.52,30.32,15,2,15,0.01
2013-2-11,68.9,63.4,59.9,64.9,60.7,57.9,94,91,80,30.35,30.21,10,1,0,1.36
2013-2-12,61.6,57.4,53.7,58.3,55.5,52.3,95,93,83,30.28,30.00,12,1,12,2.08
2013-2-13,77.3,62.4,52.2,66.5,54.4,45.5,95,78,40,30.06,29.85,25,3,25,0.94
2013-2-14,54.5,49.4,44.3,47.7,44.4,41.8,94,83,68,30.24,30.03,10,1,0,0.00
2013-2-15,69.5,49.1,35.4,48.6,41.3,34.1,96,78,34,30.27,30.13,12,1,12,0.01
2013-2-16,55.2,44.4,38.0,45.3,36.5,16.9,95,76,41,30.24,30.03,19,2,19,0.02
2013-2-17,50.4,38.7,29.4,27.4,18.8,10.2,89,49,21,30.50,30.24,17,3,17,0.00
2013-2-18,58.7,40.8,25.6,34.9,27.9,20.1,94,67,24,30.60,30.41,11,1,13,0.00
2013-2-19,64.8,52.5,36.9,57.7,48.3,33.8,95,87,60,30.42,30.14,17,2,17,0.11
2013-2-20,66.4,49.0,31.5,49.1,35.0,26.9,95,64,25,30.34,30.21,5,0,0,0.00
2013-2-21,70.5,51.8,35.9,52.2,40.3,31.4,95,71,26,30.34,30.22,10,1,0,0.00
2013-2-22,62.2,56.9,51.3,59.7,53.5,48.4,95,89,76,30.31,30.17,20,2,20,0.12
2013-2-23,63.5,54.6,48.4,61.4,53.0,46.8,95,95,93,30.20,29.94,13,1,13,2.19
2013-2-24,75.8,59.2,49.1,59.3,50.0,39.6,95,76,29,30.15,29.94,10,1,0,0.01
2013-2-25,55.2,50.5,43.4,53.8,48.9,41.8,95,94,93,30.20,30.02,22,2,22,0.70
2013-2-26,76.7,64.5,46.1,67.8,56.7,44.7,96,79,40,30.09,29.72,25,4,25,2.89
2013-2-27,62.1,53.3,49.0,52.5,42.3,37.1,84,67,53,30.08,29.89,16,3,16,0.00
2013-2-28,62.9,53.9,45.3,42.5,37.4,30.6,85,56,31,30.07,29.96,21,4,21,0.00
2013-3-1,54.4,46.9,40.9,38.7,33.3,29.8,74,60,44,30.14,30.04,12,2,12,0.00
2013-3-2,49.7,43.6,35.7,35.6,32.0,28.9,83,64,46,30.13,30.03,20,3,20,0.00
2013-3-3,46.7,39.6,34.1,31.5,28.2,24.3,81,64,45,30.23,30.09,19,2,19,0.00
2013-3-4,61.9,44.5,30.4,43.2,28.8,22.1,85,58,25,30.37,30.22,10,1,0,0.00
2013-3-5,67.5,55.7,38.6,58.5,45.9,36.9,95,72,40,30.30,29.90,21,2,21,0.04
2013-3-6,58.7,47.0,39.8,53.2,31.6,23.8,82,56,40,30.26,29.93,29,7,29,0.00
2013-3-7,62.7,46.3,31.5,40.3,33.8,28.1,93,65,35,30.41,30.26,12,1,12,0.00
2013-3-8,65.5,48.7,36.4,41.2,34.6,29.7,94,64,27,30.44,30.31,14,1,14,0.00
2013-3-9,66.7,48.9,32.6,43.6,36.6,30.1,93,67,35,30.49,30.39,18,1,18,0.00
2013-3-10,67.8,52.8,37.6,52.5,44.8,36.0,95,77,52,30.43,30.34,16,2,16,0.00
2013-3-11,72.3,60.6,47.9,60.7,53.8,45.3,95,80,56,30.35,30.04,14,2,14,0.00
2013-3-12,71.0,64.4,55.9,62.8,55.8,40.9,93,76,40,30.14,29.98,14,2,14,0.17
2013-3-13,67.5,56.9,44.6,41.2,33.2,26.3,74,44,22,30.31,30.14,20,2,20,0.00
2013-3-14,61.2,48.0,36.9,36.9,27.7,23.9,86,48,26,30.48,30.29,14,1,14,0.00
2013-3-15,72.3,52.8,34.9,48.9,36.9,28.8,93,61,26,30.41,30.20,12,2,12,0.00
2013-3-16,79.4,65.4,54.4,48.1,43.9,38.8,79,48,25,30.23,30.05,21,4,21,0.00
2013-3-17,76.2,65.7,56.7,58.0,53.4,46.2,88,66,42,30.21,30.10,19,3,19,0.00
2013-3-18,72.3,63.4,56.7,62.1,58.0,53.3,93,83,67,30.22,29.99,28,2,28,0.44
2013-3-19,78.4,64.4,56.1,59.9,50.7,31.6,95,67,22,30.16,29.97,14,2,14,0.04
2013-3-20,69.3,56.1,44.5,44.1,34.0,23.3,90,47,23,30.24,30.01,18,1,18,0.00
2013-3-21,59.1,49.6,36.9,41.9,28.0,15.6,90,47,21,30.11,29.98,21,3,21,0.00
2013-3-22,65.5,47.8,35.5,44.9,33.6,22.9,92,61,32,30.26,30.10,13,1,13,0.00
2013-3-23,62.1,53.4,43.3,53.4,48.9,41.1,93,85,70,30.20,29.98,17,3,17,0.10
2013-3-24,73.2,59.5,52.8,67.7,56.5,49.9,95,90,71,30.02,29.63,19,2,19,0.93
2013-3-25,59.1,52.1,43.7,51.8,34.5,21.1,91,55,26,30.17,29.75,28,5,28,0.00
2013-3-26,52.1,44.0,35.5,29.6,26.9,22.8,68,51,38,30.38,30.16,20,4,22,0.00
2013-3-27,62.0,46.6,32.4,36.9,30.5,27.3,90,58,29,30.45,30.34,14,1,14,0.00
2013-3-28,65.8,48.7,33.3,41.1,32.4,23.3,94,61,22,30.47,30.34,12,1,13,0.00
2013-3-29,66.2,51.2,36.2,44.6,39.0,32.0,95,68,33,30.50,30.37,14,1,14,0.00
2013-3-30,77.3,62.1,47.2,52.6,47.3,41.4,91,63,30,30.40,30.21,15,2,15,0.00
2013-3-31,77.5,65.2,54.7,59.6,54.7,48.2,88,70,49,30.25,30.05,14,2,14,0.04
2013-4-1,80.3,67.9,58.0,62.6,58.8,53.6,92,74,49,30.11,30.00,16,2,16,0.03
2013-4-2,77.8,60.5,47.7,53.7,49.2,41.8,93,70,29,30.27,30.11,15,1,15,0.00
2013-4-3,73.3,58.0,48.6,57.2,51.1,46.9,95,80,49,30.36,30.22,16,2,16,0.17
2013-4-4,62.2,55.8,49.4,60.4,53.3,47.6,94,91,82,30.33,30.00,20,3,20,0.42
2013-4-5,63.6,50.7,45.0,52.3,46.8,43.2,94,87,64,30.20,30.01,13,1,13,0.48
2013-4-6,70.7,56.0,41.6,55.3,46.6,37.4,95,75,31,30.38,30.19,18,2,18,0.00
2013-4-7,75.5,61.4,48.1,61.9,54.6,46.6,95,80,55,30.39,30.29,14,2,14,0.00
2013-4-8,81.3,65.5,50.3,64.3,57.4,48.8,95,78,42,30.34,30.25,12,1,14,0.00
2013-4-9,83.1,68.8,53.9,67.2,60.8,52.4,95,78,46,30.36,30.27,13,2,13,0.00
2013-4-10,82.2,70.3,56.5,65.3,61.8,54.6,94,77,47,30.32,30.16,13,2,13,0.00
2013-4-11,82.7,72.1,61.7,72.2,67.1,60.0,95,85,68,30.17,29.97,19,3,19,0.00
2013-4-12,83.8,74.8,69.1,74.2,69.5,58.5,93,84,69,30.00,29.86,19,2,19,0.52
2013-4-13,83.3,67.0,53.8,58.5,51.6,47.1,92,61,29,30.17,30.00,12,0,12,0.00
2013-4-14,70.5,62.7,53.2,64.0,59.3,51.4,95,89,73,30.22,30.08,15,1,15,1.17
2013-4-15,74.3,66.7,61.7,66.6,62.9,59.3,94,88,73,30.30,30.02,14,2,15,0.10
2013-4-16,80.4,69.1,59.0,67.2,62.0,57.3,95,80,53,30.39,30.29,8,1,14,0.00
2013-4-17,82.1,69.4,58.6,69.1,61.5,56.8,95,79,46,30.38,30.27,14,1,14,0.01
2013-4-18,82.2,72.0,62.5,70.1,65.8,60.7,95,82,57,30.28,30.15,15,2,15,0.00
2013-4-19,84.0,74.1,62.5,72.7,69.1,59.6,94,85,66,30.17,29.99,24,3,24,1.33
2013-4-20,65.0,56.2,48.5,59.6,50.7,46.8,94,83,57,30.39,30.13,14,2,14,0.57
2013-4-21,71.2,58.2,44.1,56.3,50.3,42.5,95,77,55,30.46,30.37,26,4,26,0.01
2013-4-22,74.2,61.2,53.1,52.1,48.2,40.6,85,63,43,30.42,30.27,19,3,19,0.01
2013-4-23,73.0,59.6,49.3,58.3,52.5,46.6,94,78,57,30.36,30.27,13,2,13,0.00
2013-4-24,81.7,64.9,47.9,64.2,56.9,46.3,95,78,48,30.33,30.21,10,1,0,0.00
2013-4-25,86.2,73.7,63.4,68.2,63.6,60.4,91,73,47,30.36,30.24,10,1,0,0.00
2013-4-26,76.3,67.5,60.8,62.3,56.1,42.1,94,71,30,30.51,30.35,20,3,20,0.00
2013-4-27,78.9,65.4,52.6,61.1,55.8,48.3,94,74,38,30.48,30.37,15,3,15,0.00
2013-4-28,78.8,70.8,61.9,66.0,62.5,58.1,93,76,59,30.37,30.16,15,3,15,0.00
2013-4-29,81.3,69.8,63.0,70.3,64.8,60.1,94,85,61,30.19,30.05,23,1,23,1.44
2013-4-30,80.5,69.1,61.5,68.0,63.8,60.1,95,85,62,30.23,30.10,14,1,14,0.00
2013-5-1,72.0,66.2,61.6,62.5,60.8,58.8,94,83,68,30.31,30.18,17,2,17,0.00
2013-5-2,75.0,67.9,65.3,67.0,63.9,61.0,92,87,75,30.27,30.20,29,5,29,0.25
2013-5-3,70.5,65.4,62.0,64.4,60.7,56.8,89,85,76,30.22,30.11,26,6,26,0.04
2013-5-4,70.5,63.2,58.4,63.2,59.8,56.1,93,89,76,30.11,29.99,25,6,25,0.54
2013-5-5,76.0,66.7,56.8,65.5,62.2,55.1,94,86,50,30.01,29.89,18,3,19,1.85
2013-5-6,73.0,62.5,53.5,55.8,51.1,45.8,94,69,42,30.10,29.97,14,2,14,0.00
2013-5-7,74.4,62.8,54.6,60.2,54.3,51.3,92,75,47,30.14,30.05,14,1,14,0.03
2013-5-8,82.0,66.8,51.2,61.1,54.7,49.2,94,69,39,30.21,30.12,15,2,15,0.01
2013-5-9,88.5,73.3,60.2,64.9,60.8,56.9,90,68,39,30.25,30.18,11,2,0,0.00
2013-5-10,87.0,74.8,60.3,67.9,62.1,57.7,92,67,39,30.26,30.14,16,2,16,0.00
2013-5-11,85.7,76.5,67.8,68.9,66.0,61.8,91,72,49,30.18,30.03,13,2,13,0.00
2013-5-12,85.3,74.6,62.5,67.2,60.7,51.1,91,65,32,30.17,30.02,17,3,17,0.00
2013-5-13,78.3,64.8,52.7,55.3,45.4,38.6,84,53,26,30.30,30.16,13,1,13,0.00
2013-5-14,79.7,63.5,46.3,53.6,47.4,39.8,90,60,28,30.41,30.30,13,1,13,0.00
2013-5-15,89.3,72.1,58.3,63.8,57.4,53.5,85,63,36,30.35,30.17,11,2,12,0.00
2013-5-16,84.9,73.6,63.6,66.8,61.7,54.9,89,67,49,30.25,30.15,10,2,0,0.00
2013-5-17,90.0,74.5,63.0,70.1,65.4,60.8,94,76,45,30.26,30.18,10,1,0,0.00
2013-5-18,85.6,72.6,62.3,72.7,67.1,60.5,95,84,57,30.29,30.19,12,1,0,0.05
2013-5-19,83.3,73.8,69.6,73.1,70.5,67.7,95,90,69,30.25,30.17,9,1,0,0.27
2013-5-20,85.5,75.6,71.1,73.4,71.0,65.8,95,86,65,30.26,30.17,6,1,0,0.09
2013-5-21,83.8,75.4,69.6,75.0,70.6,67.8,95,86,67,30.21,30.11,10,1,0,0.05
2013-5-22,84.8,74.0,65.0,72.8,68.5,63.1,95,84,59,30.16,30.06,9,0,0,0.04
2013-5-23,89.5,78.3,69.7,73.4,68.2,64.0,94,73,46,30.10,30.00,13,1,13,0.00
2013-5-24,87.5,76.3,61.8,64.6,58.8,48.9,81,57,32,30.31,30.04,14,2,14,0.00
2013-5-25,82.2,66.6,52.4,54.3,48.8,39.1,87,57,26,30.45,30.29,15,1,15,0.00
2013-5-26,88.3,70.4,52.3,62.2,57.2,50.3,94,67,34,30.41,30.29,11,1,0,0.00
2013-5-27,84.7,72.2,58.6,67.4,63.0,56.6,94,75,48,30.39,30.30,12,1,12,0.00
2013-5-28,83.3,73.7,62.7,70.0,64.6,60.6,94,75,50,30.38,30.31,14,2,14,0.00
2013-5-29,83.2,73.6,63.4,70.4,66.3,61.6,94,79,56,30.38,30.29,16,2,16,0.00
2013-5-30,87.0,76.8,66.5,73.4,69.0,64.3,94,79,53,30.38,30.30,13,2,13,0.00
2013-5-31,86.8,77.6,68.8,73.9,70.6,67.0,95,80,60,30.35,30.27,14,2,14,0.00
2013-6-1,86.4,76.8,65.9,73.3,69.4,64.1,95,79,58,30.28,30.21,15,2,15,0.00
2013-6-2,85.3,76.9,68.8,75.5,72.0,66.8,94,85,70,30.24,30.07,11,2,0,0.06
2013-6-3,93.3,82.0,75.8,76.6,74.0,71.0,93,78,52,30.10,29.99,12,2,13,0.00
2013-6-4,91.3,78.4,72.7,77.8,73.8,69.0,93,86,60,30.16,30.05,14,1,14,0.38
2013-6-5,80.8,75.8,71.6,77.3,73.5,69.2,95,92,84,30.17,30.06,16,1,16,1.56
2013-6-6,78.4,74.1,71.1,75.7,71.9,69.0,94,93,86,30.10,29.77,20,2,20,1.03
2013-6-7,89.0,78.5,72.1,73.9,72.2,69.8,95,82,58,30.03,29.57,18,4,18,0.43
2013-6-8,90.9,80.8,73.0,77.8,73.2,69.0,91,79,55,30.23,30.01,13,2,13,0.00
2013-6-9,87.7,80.5,74.9,78.6,75.1,72.8,94,84,69,30.26,30.17,13,2,13,0.00
2013-6-10,89.4,79.0,69.9,79.0,74.3,67.5,94,86,65,30.24,30.08,23,2,23,1.18
2013-6-11,93.2,81.4,71.2,76.1,72.3,69.7,95,76,50,30.19,30.08,13,2,13,0.01
2013-6-12,99.1,87.0,76.5,79.5,74.6,71.3,89,69,45,30.15,30.05,11,2,0,0.00
2013-6-13,96.8,87.0,77.0,78.3,74.8,72.0,90,69,46,30.08,29.89,16,2,16,0.00
2013-6-14,92.0,82.9,70.1,75.6,68.5,61.9,89,64,39,30.13,29.86,12,2,12,0.00
2013-6-15,85.3,76.4,66.7,73.2,65.5,59.8,94,72,46,30.26,30.13,14,2,14,0.00
2013-6-16,91.0,76.8,65.1,71.5,66.4,62.9,94,72,46,30.31,30.21,10,1,0,0.00
2013-6-17,90.8,77.7,67.1,77.9,71.8,65.0,94,83,58,30.23,30.10,12,1,12,0.15
2013-6-18,92.7,81.5,71.7,76.8,73.7,69.7,95,79,55,30.14,30.00,14,2,14,0.00
2013-6-19,91.0,79.8,71.8,76.9,72.9,69.6,94,80,57,30.18,30.05,13,2,13,1.50
2013-6-20,85.5,77.0,70.7,75.0,71.1,67.1,95,83,67,30.29,30.16,17,2,17,0.01
2013-6-21,89.8,77.9,68.0,74.6,69.8,65.5,92,78,54,30.32,30.24,13,1,13,0.00
2013-6-22,86.4,77.9,71.9,74.9,72.5,70.0,94,84,62,30.31,30.24,12,1,12,0.00
2013-6-23,91.5,79.2,72.1,77.9,73.9,70.2,95,85,58,30.33,30.25,9,0,0,0.10
2013-6-24,89.3,78.6,71.8,77.8,74.1,70.0,95,87,64,30.36,30.27,10,1,0,0.11
2013-6-25,91.0,80.0,72.3,77.5,73.1,68.8,95,81,56,30.32,30.20,12,1,12,0.04
2013-6-26,93.0,79.5,69.7,79.3,73.5,67.8,94,83,55,30.24,30.12,10,1,0,0.04
2013-6-27,92.8,82.2,75.5,78.5,73.7,65.9,91,77,54,30.13,29.96,19,3,21,0.00
2013-6-28,94.5,82.6,75.4,79.6,74.2,70.1,90,77,55,30.00,29.82,16,3,16,0.00
2013-6-29,88.3,79.7,73.1,76.4,73.3,70.2,93,82,63,29.92,29.84,15,2,15,0.21
2013-6-30,90.4,80.1,75.5,78.5,74.7,72.0,93,84,60,29.98,29.88,13,2,13,0.00
2013-7-1,86.5,78.6,73.1,77.1,74.1,70.5,93,86,69,30.15,29.95,12,2,12,0.27
2013-7-2,81.6,76.7,73.4,77.5,73.8,71.2,95,91,82,30.28,30.14,15,1,15,1.64
2013-7-3,86.8,79.2,72.5,79.3,75.2,70.7,95,88,74,30.32,30.25,14,2,15,0.29
2013-7-4,87.5,82.0,78.1,78.7,76.2,74.3,91,83,70,30.34,30.28,17,3,17,0.08
2013-7-5,88.5,81.7,75.6,78.9,76.1,73.4,94,84,69,30.35,30.27,15,2,15,0.07
2013-7-6,88.8,80.9,74.6,78.0,74.8,72.4,94,83,66,30.33,30.26,17,2,17,0.03
2013-7-7,89.2,81.6,74.5,77.3,74.5,72.2,94,80,61,30.32,30.24,14,2,14,0.00
2013-7-8,91.2,80.4,71.8,78.1,73.5,70.0,95,81,57,30.33,30.26,9,1,0,0.00
2013-7-9,90.7,81.4,71.5,76.5,73.8,69.7,95,79,59,30.33,30.23,11,1,0,0.00
2013-7-10,90.3,81.0,72.8,76.1,73.4,70.7,94,79,58,30.27,30.11,10,1,0,0.00
2013-7-11,91.3,80.4,73.8,78.6,74.8,71.2,93,84,59,30.15,30.01,17,1,17,0.18
2013-7-12,80.7,76.0,73.4,77.1,73.6,71.2,95,92,87,30.10,30.02,7,0,0,0.20
2013-7-13,85.5,77.5,72.9,79.1,74.2,71.0,95,90,74,30.18,30.07,13,1,13,0.17
2013-7-14,83.5,76.6,73.3,77.0,73.9,71.1,95,91,78,30.33,30.17,20,1,20,2.20
2013-7-15,87.8,80.3,73.9,78.0,75.2,72.1,95,85,68,30.36,30.30,18,3,19,0.03
2013-7-21,75.8,75.2,74.8,73.5,73.0,72.6,93,93,93,30.18,30.15,3,0,0,0.22
2013-7-22,91.0,79.2,73.7,75.9,73.4,71.5,94,84,58,30.19,30.09,15,3,15,0.01
2013-7-23,91.3,81.7,74.9,76.5,73.8,72.1,92,78,58,30.11,29.97,18,3,20,0.10
2013-7-24,83.6,77.6,73.1,75.4,73.1,71.0,93,86,73,30.00,29.92,11,2,0,0.02
2013-7-25,97.3,79.5,70.9,79.9,72.8,68.8,94,82,50,30.11,29.93,14,1,14,1.04
2013-7-26,87.6,79.6,71.4,78.6,74.4,69.6,95,85,68,30.19,30.09,12,2,12,0.00
2013-7-27,91.0,80.9,75.1,78.0,75.4,72.3,95,84,60,30.17,30.04,11,1,0,0.00
2013-7-28,92.9,80.8,74.6,78.3,75.1,72.4,94,84,60,30.17,30.06,8,0,0,0.00
2013-7-29,93.6,81.7,74.2,78.4,75.1,72.0,94,82,59,30.32,30.14,10,1,16,0.55
2013-7-30,95.8,82.2,72.9,81.4,76.0,71.1,95,83,51,30.31,30.22,7,1,0,0.01
2013-7-31,90.8,78.4,72.5,78.7,74.2,70.3,94,88,64,30.27,30.14,10,1,0,2.49
2013-8-1,86.6,78.2,73.1,76.3,73.4,71.3,94,86,70,30.16,30.07,12,1,13,0.01
2013-8-2,92.1,80.9,73.2,80.0,75.1,70.9,93,83,61,30.18,30.08,11,1,0,0.00
2013-8-3,97.0,84.5,74.0,79.9,76.6,72.2,95,79,51,30.18,30.07,7,0,0,0.01
2013-8-4,95.9,84.5,76.3,79.8,76.6,73.7,93,79,55,30.13,30.03,10,1,0,0.00
2013-8-5,87.9,81.2,74.8,76.7,73.3,69.3,94,78,61,30.17,30.08,17,3,17,0.00
2013-8-6,89.5,81.1,73.3,75.5,72.7,69.6,92,77,55,30.18,30.08,12,1,12,0.00
2013-8-7,91.3,80.1,72.4,74.1,72.2,70.0,94,78,54,30.20,30.13,12,1,12,0.00
2013-8-8,93.7,79.9,71.3,79.2,74.7,69.5,95,85,58,30.21,30.13,10,0,0,0.43
2013-8-9,92.5,83.2,74.3,79.3,75.8,71.5,95,80,55,30.25,30.15,9,1,0,0.01
2013-8-10,92.4,82.9,73.6,79.4,75.2,71.7,95,79,55,30.28,30.21,12,1,12,0.00
2013-8-11,98.9,85.3,76.6,79.3,76.9,73.1,94,78,46,30.30,30.19,11,1,0,0.00
2013-8-12,98.8,86.4,76.7,79.9,76.1,73.2,90,73,48,30.25,30.10,10,1,0,0.00
2013-8-13,96.0,85.1,76.8,79.7,75.9,74.0,93,76,51,30.15,29.99,14,2,14,0.15
2013-8-14,96.3,81.7,74.3,78.3,74.7,72.2,94,81,51,30.15,29.97,20,2,20,1.69
2013-8-15,74.8,72.2,68.3,73.2,70.1,66.5,95,93,87,30.21,30.09,13,1,13,0.79
2013-8-16,87.5,75.3,69.4,78.7,72.2,67.6,95,91,74,30.22,30.10,13,1,13,1.97
2013-8-17,85.4,74.4,71.2,76.8,72.0,69.7,96,92,74,30.31,30.16,6,0,0,0.30
2013-8-18,89.8,79.4,70.8,80.9,74.7,69.3,96,86,66,30.31,30.23,12,1,12,0.28
2013-8-19,91.0,79.9,73.7,80.5,75.0,71.5,96,86,62,30.27,30.15,17,1,17,0.08
2013-8-20,92.5,81.2,73.0,80.3,75.4,71.5,96,84,60,30.29,30.19,10,1,0,0.00
2013-8-21,90.8,79.4,73.5,80.1,75.4,70.1,95,88,55,30.34,30.24,15,0,15,1.25
2013-8-22,91.1,80.8,71.3,77.4,74.0,69.5,95,81,59,30.31,30.17,9,0,0,0.13
2013-8-23,92.7,81.4,71.6,77.3,73.8,70.1,95,79,54,30.20,30.11,9,0,0,0.00
2013-8-24,83.2,77.7,73.1,75.8,73.4,71.0,94,87,75,30.34,30.16,13,1,13,0.31
2013-8-25,87.4,77.3,68.4,71.7,67.0,60.8,94,73,44,30.42,30.34,17,2,17,0.00
2013-8-26,87.8,77.1,67.9,73.2,69.3,64.2,92,77,60,30.39,30.26,16,1,16,0.00
2013-8-27,92.5,78.4,68.4,73.6,69.4,64.1,95,77,42,30.29,30.16,9,0,0,0.00
2013-8-28,93.7,79.9,69.0,73.1,69.8,66.4,93,74,43,30.19,30.10,9,1,0,0.00
2013-8-29,97.0,83.2,71.8,78.9,73.6,68.8,91,75,50,30.13,30.00,11,1,0,0.00
2013-8-30,90.3,81.1,74.4,79.1,75.8,72.2,94,85,67,30.12,30.03,15,2,15,0.00
2013-8-31,90.8,80.8,74.8,79.9,75.9,73.0,95,86,63,30.12,30.02,10,0,0,0.31
2013-9-1,94.5,82.6,74.1,78.9,75.7,71.9,95,81,54,30.10,29.99,9,1,0,0.00
2013-9-2,94.3,82.5,74.2,78.3,74.8,70.0,93,79,56,30.10,29.97,11,2,0,0.00
2013-9-3,92.4,81.6,72.3,78.9,74.2,70.2,93,79,58,30.11,29.99,13,2,13,0.00
2013-9-4,96.2,81.3,74.4,78.8,74.7,71.8,93,81,55,30.24,30.08,12,1,12,0.35
2013-9-5,94.3,81.1,72.0,80.1,74.7,70.5,96,82,59,30.24,30.13,8,0,0,0.28
2013-9-6,94.0,80.9,70.7,76.2,70.9,64.4,95,75,41,30.23,30.14,11,1,0,0.01
2013-9-7,91.5,78.3,67.6,75.4,69.3,65.7,94,77,46,30.21,30.11,12,1,12,0.00
2013-9-8,94.2,78.8,68.0,74.9,70.5,66.5,96,78,45,30.15,30.05,8,0,0,0.00
2013-9-9,89.5,79.1,70.0,75.7,72.0,68.2,95,80,60,30.26,30.11,13,1,13,0.00
2013-9-10,89.8,79.3,71.2,75.0,72.1,69.2,94,80,58,30.34,30.24,17,2,17,0.00
2013-9-11,88.0,77.7,71.4,76.3,71.7,68.6,95,83,57,30.32,30.22,11,1,0,0.00
2013-9-12,93.4,79.9,69.7,75.5,71.0,67.9,95,77,47,30.23,30.03,7,0,0,0.00
2013-9-13,95.0,81.2,73.0,75.5,72.5,70.8,93,77,49,30.04,29.88,10,2,0,0.05
2013-9-14,90.7,78.2,69.2,75.4,70.9,63.1,93,79,58,30.18,29.93,14,2,14,0.02
2013-9-15,87.2,78.4,71.5,78.1,73.4,69.7,94,85,70,30.27,30.17,18,2,18,0.00
2013-9-16,94.0,78.5,70.8,79.0,73.0,67.8,96,85,56,30.26,30.14,15,1,15,1.33
2013-9-17,81.6,74.3,70.3,72.5,69.1,64.0,96,84,63,30.33,30.20,15,2,17,0.01
2013-9-18,85.0,73.8,66.3,64.5,62.7,59.6,90,70,48,30.34,30.25,16,1,16,0.00
2013-9-19,88.3,73.2,61.7,70.8,64.9,58.1,93,77,52,30.29,30.21,13,1,13,0.00
2013-9-20,86.8,75.0,65.1,72.8,67.7,63.6,96,80,54,30.23,30.09,9,1,0,0.00
2013-9-21,87.0,75.5,65.5,73.4,69.3,64.0,95,82,58,30.10,29.89,9,1,0,0.14
2013-9-22,79.5,73.8,69.3,72.2,70.5,67.5,94,90,75,30.00,29.85,8,1,0,0.08
2013-9-23,85.2,73.5,63.6,68.5,64.7,60.7,96,76,49,30.16,29.99,13,1,14,0.01
2013-9-24,82.0,73.7,68.5,68.9,66.1,63.0,90,78,63,30.16,30.01,22,3,22,0.00
2013-9-25,80.2,72.6,68.3,72.0,68.9,65.5,95,88,75,30.02,29.91,18,1,18,0.43
2013-9-26,74.2,68.3,64.4,68.8,65.9,62.6,95,92,83,30.10,29.93,12,1,12,0.35
2013-9-27,83.4,69.9,59.0,65.2,61.7,57.3,95,78,46,30.23,30.08,15,1,15,0.01
2013-9-28,81.7,69.5,57.5,65.5,61.3,55.0,92,76,58,30.29,30.21,16,1,16,0.00
2013-9-29,82.4,69.8,59.6,64.1,60.8,57.6,93,75,49,30.24,30.14,10,1,12,0.00
2013-9-30,81.5,66.4,55.2,63.3,58.6,53.8,96,79,45,30.22,30.13,10,0,0,0.01
2013-10-1,85.3,68.5,54.5,65.8,59.6,53.1,96,77,44,30.30,30.19,15,0,19,0.01
2013-10-2,87.8,70.6,57.6,67.5,61.8,56.2,96,77,42,30.29,30.20,12,1,12,0.00
2013-10-3,86.3,71.9,60.0,71.8,66.1,58.4,96,83,60,30.28,30.20,11,1,0,0.01
2013-10-4,92.2,75.0,64.6,73.9,68.0,63.1,96,81,48,30.28,30.19,4,0,0,0.00
2013-10-5,90.3,74.4,64.4,72.4,67.0,62.9,96,80,49,30.26,30.17,11,1,0,0.01
2013-10-6,90.5,76.1,65.9,77.4,71.1,64.2,96,86,60,30.19,30.04,10,1,0,0.01
2013-10-7,88.5,77.1,71.0,77.2,73.0,69.0,96,88,63,30.05,29.92,10,1,0,0.39
2013-10-8,72.7,66.8,59.6,71.2,64.1,56.8,96,91,83,30.22,29.97,13,2,15,0.49
2013-10-9,82.0,67.0,57.8,66.2,60.2,55.2,94,80,58,30.26,30.17,14,2,14,0.00
2013-10-10,81.5,66.5,54.9,62.9,58.8,53.2,95,79,49,30.23,30.10,14,1,14,0.00
2013-10-11,86.3,68.5,54.7,65.9,59.4,53.2,96,77,42,30.17,30.06,10,0,0,0.01
2013-10-12,89.5,71.6,56.5,67.5,61.7,54.8,95,75,36,30.19,30.08,6,0,0,0.00
2013-10-13,82.5,72.7,66.8,69.7,66.6,63.4,93,82,58,30.27,30.17,11,1,0,0.00
2013-10-14,73.2,69.6,67.2,67.3,65.5,64.2,91,87,80,30.27,30.18,10,2,0,0.00
2013-10-15,79.0,67.4,60.9,65.2,61.5,58.8,93,82,56,30.24,30.13,15,1,15,0.00
2013-10-16,84.5,68.4,57.2,67.7,62.3,55.8,95,83,54,30.17,30.08,9,0,0,0.00
2013-10-17,86.0,71.7,60.9,71.3,65.8,59.4,96,83,52,30.14,30.03,8,1,0,0.01
2013-10-18,88.5,75.5,67.1,73.4,69.9,65.6,96,84,58,30.13,30.04,9,0,0,0.00
2013-10-19,83.5,73.9,66.7,73.1,69.1,61.7,95,85,66,30.09,30.00,10,1,0,0.01
2013-10-20,76.7,66.9,62.0,63.6,60.4,55.5,94,80,60,30.19,30.07,10,1,0,0.00
2013-10-21,73.7,66.3,61.2,63.9,60.8,58.3,94,83,68,30.24,30.14,8,0,0,0.00
2013-10-22,69.7,64.6,61.4,63.9,61.4,59.4,94,90,74,30.17,30.00,5,0,0,0.08
2013-10-23,74.7,64.6,52.6,61.7,53.3,42.2,95,70,34,30.19,29.94,19,2,19,0.01
2013-10-24,71.4,54.5,40.9,50.6,43.7,38.1,94,70,38,30.36,30.19,7,0,0,0.00
2013-10-25,68.0,53.8,42.4,50.2,44.7,38.6,95,75,39,30.49,30.31,12,0,12,0.00
2013-10-26,69.5,51.6,37.4,49.1,42.0,35.6,94,74,38,30.48,30.31,9,0,0,0.00
2013-10-27,77.6,56.6,41.0,55.8,47.7,39.6,95,76,42,30.32,30.23,7,0,0,0.00
2013-10-28,81.2,63.6,53.6,61.4,56.4,51.6,94,80,49,30.41,30.27,6,0,0,0.00
2013-10-29,81.9,63.4,50.8,63.1,55.5,49.3,96,79,44,30.48,30.38,6,0,0,0.00
2013-10-30,83.8,64.3,51.6,64.7,56.7,50.1,96,80,43,30.48,30.33,4,0,0,0.01
2013-10-31,82.1,67.2,52.2,69.6,62.5,50.8,96,86,65,30.35,30.13,8,0,0,0.00
2013-11-1,81.0,73.5,69.1,70.3,68.7,66.5,94,85,68,30.14,29.90,13,1,13,0.48
2013-11-2,75.2,65.6,54.0,67.3,59.0,51.3,95,81,46,30.12,29.91,8,1,0,0.54
2013-11-3,71.6,55.7,42.7,51.6,45.7,40.5,94,74,34,30.43,30.11,10,0,0,0.00
2013-11-4,70.4,56.5,44.5,49.7,44.1,38.7,93,66,34,30.55,30.42,17,2,17,0.00
2013-11-5,74.0,58.0,45.6,59.1,50.2,41.3,93,77,48,30.55,30.45,12,2,12,0.02
2013-11-6,79.0,65.1,55.5,66.9,60.7,53.8,94,86,64,30.45,30.23,17,1,17,0.00
2013-11-7,80.5,66.8,58.6,67.2,61.9,52.4,95,85,60,30.23,30.10,7,1,0,0.00
2013-11-8,67.9,54.0,38.7,52.4,39.9,33.6,94,63,31,30.44,30.20,19,2,19,0.00
2013-11-9,70.7,54.4,37.9,54.2,47.0,36.3,94,78,50,30.49,30.38,8,0,0,0.00
2013-11-10,76.0,59.7,49.9,57.3,52.2,48.1,94,79,44,30.41,30.29,6,0,0,0.00
2013-11-11,71.8,57.0,45.3,56.4,49.6,42.1,95,78,53,30.42,30.31,11,1,0,0.00
2013-11-12,76.4,57.6,45.1,57.1,47.8,35.6,95,74,38,30.46,30.16,22,1,22,0.00
2013-11-13,55.2,42.2,31.7,36.7,27.1,19.7,86,59,26,30.67,30.45,17,3,17,0.00
2013-11-14,66.7,46.4,28.3,48.4,38.3,25.3,94,76,47,30.65,30.46,11,1,0,0.00
2013-11-15,64.5,55.9,46.7,59.5,53.4,45.1,95,91,81,30.47,30.30,5,0,0,0.05
2013-11-16,78.1,64.4,56.5,66.0,59.9,54.8,96,87,63,30.37,30.28,9,1,0,0.00
2013-11-17,76.0,67.3,58.0,70.9,64.6,56.5,95,91,81,30.32,30.14,7,0,0,0.00
2013-11-18,82.5,72.9,58.6,73.2,67.8,49.0,94,85,58,30.15,29.99,9,1,0,0.00
2013-11-19,67.5,55.3,43.7,49.1,40.8,36.2,90,61,35,30.32,30.08,15,1,15,0.00
2013-11-20,61.2,54.1,44.6,50.0,45.2,39.7,86,72,60,30.45,30.30,12,2,12,0.00
2013-11-21,68.2,59.7,53.5,59.0,54.2,48.0,92,82,69,30.51,30.44,14,1,14,0.00
2013-11-22,78.1,67.1,60.6,68.2,63.2,58.3,95,88,70,30.47,30.30,7,0,0,0.00
2013-11-23,66.3,62.8,60.1,62.8,59.1,55.5,95,88,84,30.30,30.18,7,1,0,0.01
2013-11-24,60.0,47.9,36.9,55.6,28.9,16.8,87,50,24,30.65,30.25,18,2,18,0.00
2013-11-25,52.2,44.1,32.8,45.6,32.0,17.0,90,63,47,30.64,30.36,14,2,14,0.00
2013-11-26,70.1,61.2,48.5,68.2,59.3,45.8,95,93,90,30.36,29.77,14,2,14,1.12
2013-11-27,70.7,52.3,36.1,68.1,47.5,31.0,94,84,67,30.40,29.67,19,5,19,0.05
2013-11-28,52.7,37.8,27.6,34.1,29.2,25.6,94,75,38,30.65,30.39,11,1,0,0.00
2013-11-29,62.0,43.1,30.5,40.5,34.6,29.0,95,76,37,30.69,30.59,9,0,0,0.00
2013-11-30,63.4,48.6,39.4,42.3,38.6,35.0,87,70,44,30.66,30.46,10,1,0,0.00
2013-12-1,61.7,52.3,46.5,53.5,47.4,41.0,94,83,73,30.47,30.17,5,0,0,0.00
2013-12-2,69.1,53.9,44.1,51.8,47.4,42.5,94,81,41,30.17,29.97,8,0,0,0.00
2013-12-3,66.3,55.8,44.1,58.5,52.3,42.5,96,88,72,30.13,30.03,8,1,0,0.00
2013-12-4,83.9,67.0,57.4,66.5,61.0,55.7,95,83,52,30.25,30.11,8,1,0,0.00
2013-12-5,79.2,68.2,57.7,66.9,63.1,56.3,96,85,63,30.30,30.22,8,1,0,0.01
2013-12-6,82.0,71.4,65.4,70.8,66.4,62.4,92,85,68,30.30,30.21,10,2,0,0.00
2013-12-7,78.9,68.2,53.0,70.7,64.4,51.3,95,88,74,30.45,30.25,14,1,14,0.68
2013-12-8,53.0,49.9,48.2,51.3,48.4,46.8,95,95,94,30.48,30.37,9,0,0,0.19
2013-12-9,76.7,59.4,48.3,68.1,57.1,46.9,96,92,74,30.39,30.20,7,0,0,0.01
2013-12-10,74.3,63.1,46.1,69.4,58.5,39.7,95,85,64,30.45,30.16,16,2,16,0.15
2013-12-11,59.1,49.1,40.1,45.7,41.7,36.6,94,76,57,30.56,30.45,10,1,0,0.00
2013-12-12,61.2,45.1,33.4,41.6,35.9,31.1,94,74,35,30.55,30.43,10,1,0,0.00
2013-12-13,61.1,45.3,30.0,46.9,38.9,28.5,96,80,50,30.55,30.37,11,1,0,0.00
2013-12-14,70.3,61.1,48.8,66.9,58.0,44.2,94,90,83,30.37,29.97,13,2,13,0.60
2013-12-15,66.6,56.3,41.9,64.5,51.9,38.3,94,85,67,30.32,29.97,13,2,0,0.10
2013-12-16,65.0,45.7,33.4,45.6,38.6,31.6,95,79,43,30.40,30.31,8,0,0,0.00
2013-12-17,68.3,50.8,34.1,43.0,38.0,32.8,96,67,30,30.42,30.26,7,1,0,0.00
2013-12-18,63.4,49.1,33.5,38.7,36.0,31.4,94,64,32,30.49,30.29,9,1,0,0.00
2013-12-19,68.3,47.4,29.9,52.8,41.9,28.3,96,83,54,30.52,30.39,7,0,0,0.00
2013-12-20,76.0,58.9,43.8,60.5,52.6,42.2,96,82,53,30.42,30.30,9,1,0,0.00
2013-12-21,78.9,64.8,50.8,69.7,61.1,49.3,96,88,71,30.33,30.20,12,2,0,0.00
2013-12-22,81.5,72.7,68.5,71.3,68.5,66.5,94,87,69,30.27,30.20,13,3,0,0.00
2013-12-23,78.8,67.9,57.6,71.1,64.7,55.9,95,90,73,30.29,30.18,13,2,13,0.31
2013-12-24,61.7,50.6,39.1,56.2,41.4,30.5,95,73,34,30.51,30.25,12,2,12,0.06
2013-12-25,55.2,44.6,35.1,38.7,34.0,27.4,81,67,53,30.60,30.47,12,1,12,0.00
2013-12-26,49.5,46.3,43.3,44.8,40.2,35.4,92,79,72,30.49,30.40,8,1,0,0.00
2013-12-27,61.2,50.2,43.0,43.5,38.9,36.0,90,67,41,30.56,30.46,9,1,0,0.00
2013-12-28,61.4,49.9,35.3,54.2,44.2,32.9,94,82,59,30.54,30.18,9,0,0,0.10
2013-12-29,74.6,64.4,50.8,68.0,60.0,48.4,96,86,62,30.17,29.99,11,3,14,0.85
2013-12-30,63.2,53.0,44.8,48.5,46.1,42.9,94,79,54,30.34,30.15,7,1,0,0.00
2013-12-31,58.2,52.4,45.0,48.5,46.6,43.1,93,81,66,30.53,30.32,7,1,0,0.00
2014-1-1,53.8,49.2,44.8,51.5,47.0,42.6,95,92,88,30.52,30.29,8,0,0,0.31
2014-1-2,58.8,52.8,46.2,57.4,50.8,31.8,95,93,61,30.30,29.86,20,2,20,1.05